When you browse on this site, cookies collect data to enhance your experience and personalize the content and advertising you see.
Visit our Privacy Policy to learn more. By continuing to use the site, you agree to this use of cookies and data.
  • En España
  • Lista de países
  • Para 7 días
  • Temperatura del agua
  • El tiempo en el mapa
  • Informadores
  • user-avatar
    Iniciar sesión

    Tiempo cada hora Pawlodar

    Hoy, 20 Agosto, Martes

    Tiempo Temperatura Precipitaciones Viento Presión Humedad
    00:00 +18°C° 0 mm 1 mps 753 mmHg 81%
    01:00 +16°C° 0 mm 2 mps 753 mmHg 80%
    02:00 +15°C° 0 mm 2 mps 753 mmHg 79%
    03:00 +15°C° 0 mm 2 mps 753 mmHg 79%
    04:00 +15°C° 0 mm 2 mps 753 mmHg 78%
    05:00 +13°C° 0 mm 3 mps 753 mmHg 78%
    06:00 +16°C° 0 mm 3 mps 753 mmHg 70%
    07:00 +18°C° 0 mm 3 mps 754 mmHg 62%
    08:00 +19°C° 0 mm 3 mps 754 mmHg 54%
    09:00 +21°C° 0 mm 4 mps 754 mmHg 48%
    10:00 +22°C° 0 mm 4 mps 754 mmHg 43%
    11:00 +23°C° 0 mm 4 mps 753 mmHg 37%
    12:00 +25°C° 0 mm 4 mps 753 mmHg 34%
    13:00 +25°C° 0 mm 4 mps 753 mmHg 32%
    14:00 +26°C° 0 mm 5 mps 752 mmHg 30%
    15:00 +26°C° 0 mm 5 mps 752 mmHg 30%
    16:00 +25°C° 0 mm 5 mps 752 mmHg 31%
    17:00 +25°C° 0 mm 5 mps 752 mmHg 32%
    18:00 +22°C° 0 mm 4 mps 752 mmHg 37%
    19:00 +20°C° 0 mm 3 mps 752 mmHg 42%
    20:00 +18°C° 0 mm 2 mps 752 mmHg 47%
    21:00 +17°C° 0 mm 2 mps 751 mmHg 50%
    22:00 +16°C° 0 mm 1 mps 751 mmHg 52%
    23:00 +16°C° 0 mm 1 mps 751 mmHg 55%

    Mañana, 21 Agosto, Miércoles

    Tiempo Temperatura Precipitaciones Viento Presión Humedad
    00:00 +16°C° 0 mm 1 mps 750 mmHg 54%
    01:00 +16°C° 0 mm 2 mps 750 mmHg 54%
    02:00 +16°C° 0 mm 2 mps 749 mmHg 54%
    03:00 +16°C° 0 mm 2 mps 749 mmHg 54%
    04:00 +16°C° 0 mm 2 mps 749 mmHg 55%
    05:00 +15°C° 0 mm 1 mps 749 mmHg 56%
    06:00 +18°C° 0 mm 1 mps 749 mmHg 52%
    07:00 +19°C° 0 mm 1 mps 749 mmHg 49%
    08:00 +19°C° 0 mm 2 mps 748 mmHg 46%
    09:00 +20°C° 0 mm 2 mps 748 mmHg 44%
    10:00 +21°C° 0 mm 3 mps 748 mmHg 42%
    11:00 +22°C° 0 mm 3 mps 748 mmHg 40%
    12:00 +21°C° 0.2 mm 3 mps 747 mmHg 48%
    13:00 +19°C° 0.2 mm 3 mps 747 mmHg 57%
    14:00 +17°C° 0.2 mm 3 mps 747 mmHg 65%
    15:00 +17°C° 0.4 mm 2 mps 747 mmHg 70%
    16:00 +16°C° 0.4 mm 2 mps 747 mmHg 76%
    17:00 +15°C° 0.4 mm 1 mps 747 mmHg 81%
    18:00 +15°C° 0.1 mm 1 mps 746 mmHg 82%
    19:00 +15°C° 0.1 mm 1 mps 746 mmHg 84%
    20:00 +15°C° 0.1 mm 1 mps 746 mmHg 86%
    21:00 +14°C° 0 mm 1 mps 746 mmHg 87%
    22:00 +14°C° 0 mm 1 mps 746 mmHg 88%
    23:00 +14°C° 0 mm 2 mps 745 mmHg 89%

    Pasado mañana, 22 Agosto, Jueves

    Tiempo Temperatura Precipitaciones Viento Presión Humedad
    00:00 +13°C° 0 mm 2 mps 745 mmHg 89%
    01:00 +13°C° 0 mm 2 mps 745 mmHg 89%
    02:00 +12°C° 0 mm 2 mps 745 mmHg 89%
    03:00 +12°C° 0 mm 2 mps 745 mmHg 86%
    04:00 +12°C° 0 mm 2 mps 745 mmHg 83%
    05:00 +10°C° 0 mm 3 mps 745 mmHg 80%
    06:00 +12°C° 0 mm 3 mps 745 mmHg 73%
    07:00 +14°C° 0 mm 3 mps 745 mmHg 67%
    08:00 +16°C° 0 mm 3 mps 745 mmHg 60%
    09:00 +18°C° 0.1 mm 4 mps 745 mmHg 56%
    10:00 +19°C° 0.1 mm 4 mps 745 mmHg 52%
    11:00 +20°C° 0.1 mm 5 mps 745 mmHg 48%
    12:00 +20°C° 0.6 mm 5 mps 745 mmHg 49%
    13:00 +20°C° 0.6 mm 5 mps 745 mmHg 50%
    14:00 +21°C° 0.6 mm 5 mps 745 mmHg 51%
    15:00 +20°C° 0.5 mm 5 mps 745 mmHg 52%
    16:00 +20°C° 0.5 mm 5 mps 745 mmHg 52%
    17:00 +20°C° 0.5 mm 5 mps 745 mmHg 53%
    18:00 +19°C° 0.1 mm 4 mps 746 mmHg 59%
    19:00 +17°C° 0.1 mm 3 mps 746 mmHg 65%
    20:00 +16°C° 0.1 mm 2 mps 746 mmHg 70%
    21:00 +15°C° 0.3 mm 2 mps 746 mmHg 74%
    22:00 +14°C° 0.3 mm 3 mps 746 mmHg 77%
    23:00 +13°C° 0.3 mm 3 mps 746 mmHg 80%

    23 Agosto, Viernes

    Tiempo Temperatura Precipitaciones Viento Presión Humedad
    00:00 +13°C° 0 mm 3 mps 746 mmHg 82%
    01:00 +13°C° 0 mm 3 mps 746 mmHg 83%
    02:00 +12°C° 0 mm 3 mps 746 mmHg 85%
    03:00 +12°C° 0 mm 3 mps 746 mmHg 86%
    04:00 +12°C° 0 mm 3 mps 747 mmHg 87%
    05:00 +11°C° 0 mm 3 mps 747 mmHg 89%
    06:00 +13°C° 0 mm 3 mps 747 mmHg 81%
    07:00 +16°C° 0 mm 3 mps 748 mmHg 74%
    08:00 +18°C° 0 mm 3 mps 748 mmHg 66%
    09:00 +19°C° 0 mm 4 mps 748 mmHg 61%
    10:00 +21°C° 0 mm 4 mps 748 mmHg 55%
    11:00 +22°C° 0 mm 4 mps 748 mmHg 49%
    12:00 +23°C° 0 mm 5 mps 748 mmHg 46%
    13:00 +25°C° 0 mm 5 mps 748 mmHg 42%
    14:00 +25°C° 0 mm 5 mps 748 mmHg 38%
    15:00 +25°C° 0 mm 5 mps 748 mmHg 39%
    16:00 +25°C° 0 mm 5 mps 749 mmHg 40%
    17:00 +23°C° 0 mm 5 mps 749 mmHg 41%
    18:00 +22°C° 0 mm 4 mps 749 mmHg 44%
    19:00 +21°C° 0 mm 4 mps 749 mmHg 47%
    20:00 +20°C° 0 mm 3 mps 749 mmHg 50%
    21:00 +19°C° 0 mm 3 mps 749 mmHg 52%
    22:00 +19°C° 0 mm 3 mps 750 mmHg 53%
    23:00 +18°C° 0 mm 3 mps 750 mmHg 55%

    24 Agosto, Sábado

    Tiempo Temperatura Precipitaciones Viento Presión Humedad
    00:00 +18°C° 0 mm 3 mps 750 mmHg 57%
    01:00 +17°C° 0 mm 3 mps 750 mmHg 60%
    02:00 +17°C° 0 mm 3 mps 750 mmHg 62%
    03:00 +17°C° 0 mm 3 mps 750 mmHg 63%
    04:00 +16°C° 0 mm 3 mps 751 mmHg 64%
    05:00 +16°C° 0 mm 3 mps 751 mmHg 65%
    06:00 +18°C° 0 mm 3 mps 751 mmHg 62%
    07:00 +20°C° 0 mm 4 mps 751 mmHg 58%
    08:00 +21°C° 0 mm 4 mps 751 mmHg 55%
    09:00 +23°C° 0 mm 5 mps 751 mmHg 51%
    10:00 +25°C° 0 mm 5 mps 751 mmHg 46%
    11:00 +27°C° 0 mm 5 mps 751 mmHg 42%
    12:00 +27°C° 0 mm 6 mps 751 mmHg 41%
    13:00 +28°C° 0 mm 6 mps 751 mmHg 41%
    14:00 +28°C° 0 mm 6 mps 751 mmHg 40%
    15:00 +28°C° 0 mm 5 mps 751 mmHg 42%
    16:00 +28°C° 0 mm 4 mps 751 mmHg 43%
    17:00 +27°C° 0 mm 3 mps 751 mmHg 45%
    18:00 +26°C° 0 mm 3 mps 751 mmHg 49%
    19:00 +25°C° 0 mm 2 mps 751 mmHg 54%
    20:00 +23°C° 0 mm 1 mps 751 mmHg 59%
    21:00 +23°C° 0 mm 2 mps 751 mmHg 60%
    22:00 +21°C° 0 mm 3 mps 751 mmHg 62%
    23:00 +20°C° 0 mm 4 mps 751 mmHg 63%

    25 Agosto, Domingo

    Tiempo Temperatura Precipitaciones Viento Presión Humedad
    00:00 +19°C° 0 mm 3 mps 751 mmHg 63%
    01:00 +18°C° 0 mm 3 mps 752 mmHg 63%
    02:00 +17°C° 0 mm 3 mps 752 mmHg 63%
    03:00 +16°C° 0 mm 2 mps 752 mmHg 64%
    04:00 +16°C° 0 mm 2 mps 752 mmHg 66%
    05:00 +15°C° 0 mm 2 mps 752 mmHg 67%
    06:00 +17°C° 0 mm 2 mps 752 mmHg 61%
    07:00 +19°C° 0 mm 2 mps 753 mmHg 55%
    08:00 +21°C° 0 mm 2 mps 753 mmHg 48%
    09:00 +23°C° 0 mm 2 mps 753 mmHg 43%
    10:00 +24°C° 0 mm 2 mps 753 mmHg 38%
    11:00 +26°C° 0 mm 2 mps 753 mmHg 33%
    12:00 +27°C° 0 mm 2 mps 753 mmHg 31%
    13:00 +27°C° 0 mm 2 mps 752 mmHg 28%
    14:00 +28°C° 0 mm 2 mps 752 mmHg 25%
    15:00 +28°C° 0 mm 2 mps 752 mmHg 26%
    16:00 +28°C° 0 mm 2 mps 752 mmHg 26%
    17:00 +28°C° 0 mm 1 mps 752 mmHg 26%
    18:00 +26°C° 0 mm 1 mps 752 mmHg 30%
    19:00 +24°C° 0 mm 1 mps 752 mmHg 35%
    20:00 +22°C° 0 mm 1 mps 752 mmHg 39%
    21:00 +22°C° 0 mm 1 mps 752 mmHg 40%
    22:00 +21°C° 0 mm 1 mps 751 mmHg 41%
    23:00 +21°C° 0 mm 1 mps 751 mmHg 43%
    Mostrar más